Weather History for Tucson, AZ

Change the Weather History Date:

Sunday, March 23, 2014

  Actual Average Record
Temperature  
Mean Temperature 67 °F 61 °F  
Max Temperature 82 °F 76 °F 92 °F (1896)
Min Temperature 51 °F 47 °F 25 °F (1898)
Degree Days  
Heating Degree Days 0 5  
Month to date heating degree days 36 145  
Since 1 July heating degree days 869 1412  
Cooling Degree Days 2 1  
Month to date cooling degree days 14 15  
Year to date cooling degree days 38 19  
Growing Degree Days 16 (Base 50)    
Moisture  
Dew Point 22 °F    
Average Humidity 24    
Maximum Humidity 38    
Minimum Humidity 9    
Precipitation  
Precipitation 0.00 in 0.02 in 1.05 in (1920)
Month to date precipitation 0.58 0.57  
Year to date precipitation 0.59 2.37  
Sea Level Pressure  
Sea Level Pressure 29.96 in    
Wind  
Wind Speed 7 mph (SSW)    
Max Wind Speed 15 mph    
Max Gust Speed 20 mph    
Visibility 10 miles    
Events      
T = Trace of Precipitation, MM = Missing Value Source: NWS Daily Summary

Daily Weather History Graph

Daily Weather History Graph

Search for Another Location

Airport:

Trip Planner

Search our weather history database for the weather conditions in past years. The results will help you decide how hot, cold, wet, or windy it might be!

Date:

Astronomy

Mar. 23, 2014 Rise Set
Actual Time 6:23 AM MST 6:37 PM MST
Civil Twilight 5:59 AM MST 7:01 PM MST
Nautical Twilight 5:30 AM MST 7:30 PM MST
Astronomical Twilight 5:01 AM MST 7:59 PM MST
Moon 12:41 AM MST (3/23) 11:25 AM MST (3/23)
Length of Visible Light 13h 02m
Length of Day
12h 13m
Waning Gibbous, 53% of the Moon is Illuminated
Mar 23
Waning Gibbous
Mar 23
Last Quarter
Mar 30
New
Apr 7
First Quarter
Apr 15
Full

Hourly Weather History & Observations

Time (MST) Temp. Dew Point Humidity Pressure Visibility Wind Dir Wind Speed Gust Speed Precip Events Conditions
12:53 AM 57.9 °F 23.0 °F 26% 29.98 in 10.0 mi SSE 4.6 mph - N/A   Clear
1:53 AM 55.9 °F 24.1 °F 29% 29.97 in 10.0 mi SE 8.1 mph - N/A   Clear
2:53 AM 55.0 °F 25.0 °F 31% 29.97 in 10.0 mi SSE 9.2 mph - N/A   Clear
3:53 AM 52.0 °F 25.0 °F 35% 29.97 in 10.0 mi Calm Calm - N/A   Clear
4:53 AM 53.1 °F 25.0 °F 34% 29.98 in 10.0 mi SSE 8.1 mph - N/A   Clear
5:53 AM 52.0 °F 26.1 °F 37% 30.00 in 10.0 mi SE 9.2 mph - N/A   Clear
6:53 AM 52.0 °F 26.1 °F 37% 30.02 in 10.0 mi SSE 9.2 mph - N/A   Clear
7:53 AM 57.0 °F 27.0 °F 32% 30.03 in 10.0 mi SSE 9.2 mph - N/A   Clear
8:53 AM 64.0 °F 27.0 °F 25% 30.03 in 10.0 mi SSE 6.9 mph - N/A   Clear
9:53 AM 70.0 °F 27.0 °F 20% 30.03 in 10.0 mi Calm Calm - N/A   Clear
10:53 AM 73.0 °F 24.1 °F 16% 30.02 in 10.0 mi North - - N/A   Clear
11:53 AM 77.0 °F 19.9 °F 12% 30.00 in 10.0 mi Calm Calm - N/A   Clear
12:53 PM 78.1 °F 19.0 °F 11% 29.97 in 10.0 mi WNW 6.9 mph - N/A   Clear
1:53 PM 79.0 °F 15.1 °F 9% 29.94 in 10.0 mi NNW 6.9 mph - N/A   Clear
2:53 PM 80.1 °F 16.0 °F 9% 29.91 in 10.0 mi North 3.5 mph - N/A   Clear
3:53 PM 81.0 °F 15.1 °F 8% 29.90 in 10.0 mi WNW 4.6 mph - N/A   Clear
4:53 PM 80.1 °F 16.0 °F 9% 29.89 in 10.0 mi West 6.9 mph - N/A   Clear
5:53 PM 79.0 °F 18.0 °F 10% 29.90 in 10.0 mi North 8.1 mph - N/A   Clear
6:53 PM 75.0 °F 19.9 °F 13% 29.91 in 10.0 mi NNW 11.5 mph - N/A   Clear
7:53 PM 73.0 °F 21.0 °F 14% 29.92 in 10.0 mi NNW 12.7 mph - N/A   Clear
8:53 PM 71.1 °F 19.9 °F 14% 29.93 in 10.0 mi NNW 9.2 mph - N/A   Clear
9:53 PM 69.1 °F 19.9 °F 15% 29.94 in 10.0 mi West 6.9 mph - N/A   Clear
10:53 PM 64.0 °F 21.9 °F 20% 29.96 in 10.0 mi South 4.6 mph - N/A   Clear
11:53 PM 61.0 °F 24.1 °F 24% 29.96 in 10.0 mi SSE 5.8 mph - N/A   Clear